Vorticity
6 5 5 4 4 4 4 5 5 5 6 6 5 5 5 4 4 5 4 3 4 3 4 2 4 9 2 6 10 -9 7 -1 -13 9 3 5 7 5 19 4 9 7 14 10 5
5 5 5 5 5 5 5 5 5 5 5 4 5 6 6 6 7 7 4 5 4 4 5 4 2 4 2 1 22 -4 -7 6 -7 -11 7 23 -8 -3 19 -3 6 -2 21 10 11
6 6 5 5 5 4 4 4 5 4 5 5 5 6 6 5 6 6 6 7 7 6 5 5 4 5 5 -2 -2 -0 10 12 -11 9 12 12 -1 8 20 22 3 13 23 15 15
9 6 6 6 6 6 5 5 5 5 5 6 5 4 4 5 5 7 5 6 7 6 5 6 5 7 5 10 -7 16 -12 -2 8 -0 4 17 12 9 18 32 20 12 8 10 12
10 11 6 8 7 6 6 6 6 6 5 5 6 5 5 5 6 5 8 6 6 6 6 6 4 5 7 7 -5 18 -0 4 0 4 15 -1 -7 -6 4 -6 -1 11 14 8 7
5 6 11 7 8 8 6 6 6 6 7 6 7 10 7 7 5 6 4 7 8 7 7 5 6 5 3 5 6 5 43 6 15 16 -2 3 -2 16 4 11 13 2 5 9 9
7 5 5 9 10 6 9 6 6 7 6 6 5 5 5 11 8 8 8 8 3 7 7 4 9 6 6 6 2 12 18 8 2 -7 -7 13 4 -4 18 4 -0 5 8 4 4
9 8 6 6 7 11 6 10 8 6 5 5 4 5 4 5 3 3 2 3 5 4 4 5 6 10 9 7 9 23 9 -1 1 9 1 -4 17 23 7 1 1 9 10 3 0
8 7 9 7 5 5 9 8 8 9 9 8 8 7 6 7 3 4 3 4 4 4 4 3 5 8 5 6 8 18 -2 5 -7 16 12 1 21 10 19 11 9 7 3 8 10
7 8 7 7 8 8 6 8 7 8 7 8 8 8 7 9 8 7 8 11 8 7 4 4 5 7 8 14 12 7 10 2 6 -2 -23 1 0 -2 4 11 27 -1 7 5 5
4 6 7 8 7 6 8 6 6 8 6 7 6 8 9 8 7 7 7 6 7 9 7 6 6 8 9 15 6 8 12 -2 -4 2 2 -3 -6 3 -2 17 3 9 11 1 4
5 5 6 7 9 8 7 6 8 6 7 8 7 6 7 7 7 8 12 10 12 10 7 8 8 1 4 5 6 9 -0 -0 -3 -2 8 6 -0 7 1 14 3 6 23 1 1
3 5 4 7 8 8 7 7 8 8 6 4 6 6 8 7 7 8 9 10 8 10 10 10 8 4 3 7 6 10 1 4 -3 2 3 10 2 7 -9 8 -1 2 5 1 3
4 6 7 8 9 7 8 9 8 7 8 9 9 8 8 7 7 8 8 9 12 9 7 13 3 6 6 7 7 10 9 11 9 -5 -4 1 6 -3 7 9 -3 6 17 8 2
3 7 9 10 10 9 8 10 10 10 9 11 9 10 7 7 8 8 8 13 11 11 8 17 10 5 6 5 3 18 5 13 -0 -1 -1 2 0 1 -1 13 -3 -0 8 9 8
6 9 11 11 10 11 11 11 10 11 12 6 7 6 9 8 8 9 9 8 7 12 11 17 8 7 10 3 3 7 10 5 10 -7 9 9 -4 21 10 19 1 -2 12 17 15
12 14 13 13 12 12 13 14 12 9 6 8 7 9 9 7 9 9 7 7 6 6 9 10 12 9 8 13 11 11 12 16 23 6 15 5 11 -2 -7 12 8 15 7 32 17
15 13 12 8 5 5 6 10 10 11 9 9 11 10 6 9 6 5 6 5 11 9 7 8 9 13 14 10 8 8 6 5 13 9 15 9 13 5 1 16 3 -4 11 28 25
12 10 6 9 12 15 14 12 5 10 12 10 9 10 7 11 7 7 10 10 12 6 10 10 8 8 8 13 14 7 3 17 7 14 10 10 13 -5 7 10 -6 8 4 25 13
8 8 9 10 10 9 9 9 7 10 12 12 10 11 14 17 12 13 12 7 12 3 17 12 8 8 10 9 13 8 11 -5 4 4 19 6 10 5 -0 -6 -5 4 1 6 12
9 9 8 8 8 8 9 8 4 8 14 17 8 7 5 9 8 2 11 8 10 14 7 4 4 10 9 6 20 11 -0 3 6 0 12 20 9 20 -0 4 3 -3 16 6 -10
11 12 10 12 11 11 10 7 9 6 8 19 16 4 4 5 6 13 5 16 1 7 15 2 4 8 14 -1 4 3 7 13 6 -2 2 1 25 16 6 3 10 6 -7 14 17
13 13 14 14 13 13 14 14 10 6 7 10 23 18 8 7 9 19 12 -1 8 8 9 4 10 9 4 12 4 3 -6 12 4 -2 -2 7 8 20 11 14 -5 9 16 6 -2
10 8 9 9 13 10 12 10 14 10 8 8 11 16 28 4 0 17 -12 -11 7 8 5 4 7 7 17 9 7 7 5 -4 13 5 1 2 5 9 27 11 5 -5 9 -5 1
6 7 12 10 14 12 14 12 9 12 11 11 10 13 7 14 15 16 14 34 6 1 4 2 7 -2 6 -3 16 13 -2 3 -1 3 1 5 3 8 22 7 -8 13 10 8 9
6 9 5 8 8 13 8 10 16 13 14 12 20 23 18 17 18 10 11 11 24 3 1 1 1 -3 7 -6 -3 11 36 21 -7 0 4 0 1 10 8 22 10 4 12 -3 7
23 16 10 3 5 8 8 11 10 12 8 5 5 11 13 15 16 15 14 17 15 24 7 -2 -3 -5 6 -7 9 15 2 15 27 25 2 1 -1 -1 3 22 14 1 -9 12 7
Height
5896 5898 5899 5901 5902 5904 5905 5906 5906 5907 5908 5908 5909 5909 5909 5909 5910 5910 5911 5911 5910 5909 5910 5910 5910 5910 5910 5910 5912 5912 5912 5911 5911 5910 5908 5907 5906 5904 5906 5907 5908 5905 5902 5900 5899
5895 5896 5898 5900 5901 5903 5904 5905 5906 5907 5908 5909 5909 5910 5910 5910 5911 5911 5912 5911 5911 5910 5910 5911 5911 5910 5909 5910 5911 5913 5912 5911 5910 5912 5911 5913 5911 5908 5906 5905 5904 5904 5903 5899 5897
5893 5895 5897 5898 5900 5902 5903 5904 5906 5906 5907 5908 5909 5910 5910 5910 5911 5911 5912 5911 5912 5911 5910 5910 5910 5910 5909 5911 5912 5913 5912 5913 5912 5913 5913 5913 5912 5911 5908 5907 5906 5906 5904 5900 5897
5892 5893 5895 5896 5898 5900 5901 5903 5904 5905 5906 5907 5908 5909 5909 5910 5912 5910 5910 5911 5911 5911 5911 5911 5909 5909 5909 5912 5914 5914 5913 5911 5913 5914 5914 5913 5913 5912 5910 5908 5908 5909 5908 5904 5898
5890 5891 5893 5894 5896 5897 5899 5901 5902 5903 5905 5906 5907 5907 5908 5908 5909 5909 5910 5910 5910 5910 5910 5910 5908 5908 5909 5912 5914 5914 5912 5908 5911 5914 5913 5913 5914 5912 5910 5910 5910 5909 5909 5907 5904
5888 5890 5891 5892 5894 5895 5897 5898 5900 5901 5903 5904 5905 5905 5906 5907 5908 5909 5909 5910 5909 5909 5909 5909 5908 5908 5908 5909 5911 5912 5912 5909 5910 5912 5913 5913 5912 5911 5912 5910 5909 5909 5906 5907 5906
5886 5888 5889 5890 5891 5893 5894 5896 5898 5899 5900 5902 5903 5904 5904 5906 5907 5908 5908 5909 5908 5909 5908 5907 5908 5908 5909 5908 5910 5911 5911 5910 5912 5913 5913 5913 5914 5912 5911 5910 5910 5907 5908 5905 5905
5884 5885 5886 5888 5889 5891 5892 5893 5895 5896 5898 5899 5900 5901 5900 5905 5903 5904 5905 5907 5907 5907 5906 5906 5907 5908 5908 5909 5910 5911 5910 5910 5911 5910 5912 5913 5913 5910 5911 5910 5910 5909 5908 5907 5905
5882 5883 5885 5886 5887 5888 5889 5891 5892 5893 5895 5895 5897 5898 5898 5902 5899 5900 5903 5903 5905 5906 5905 5904 5906 5907 5907 5909 5909 5909 5909 5910 5908 5908 5910 5912 5913 5909 5911 5910 5910 5910 5908 5905 5905
5879 5880 5882 5883 5884 5885 5887 5888 5889 5890 5892 5893 5894 5896 5896 5899 5898 5898 5900 5900 5901 5903 5903 5903 5905 5906 5906 5907 5907 5907 5909 5911 5911 5910 5911 5908 5913 5912 5911 5911 5910 5910 5909 5907 5904
5876 5878 5878 5879 5880 5882 5883 5885 5888 5889 5888 5890 5891 5892 5892 5893 5894 5894 5895 5895 5897 5899 5900 5901 5904 5904 5904 5904 5904 5905 5908 5909 5909 5910 5908 5907 5908 5910 5911 5911 5911 5909 5910 5906 5904
5873 5874 5875 5876 5877 5878 5879 5881 5883 5885 5885 5886 5886 5887 5888 5889 5890 5890 5892 5893 5894 5895 5895 5898 5901 5899 5900 5900 5901 5902 5905 5907 5907 5905 5905 5906 5906 5908 5910 5909 5910 5910 5908 5907 5904
5869 5869 5870 5871 5872 5874 5875 5876 5877 5878 5879 5882 5881 5882 5885 5886 5885 5885 5887 5888 5888 5889 5891 5893 5896 5893 5897 5898 5899 5900 5902 5904 5905 5902 5902 5903 5904 5904 5907 5908 5908 5908 5908 5907 5905
5864 5864 5865 5866 5869 5868 5869 5871 5872 5873 5875 5876 5877 5878 5880 5879 5880 5882 5882 5883 5884 5886 5884 5888 5888 5891 5893 5897 5897 5898 5899 5898 5898 5899 5900 5901 5901 5901 5904 5906 5906 5907 5907 5905 5904
5858 5859 5860 5861 5862 5862 5864 5865 5866 5868 5869 5870 5870 5871 5873 5875 5876 5876 5877 5878 5879 5880 5879 5888 5885 5885 5887 5893 5890 5896 5892 5894 5894 5895 5897 5899 5898 5899 5901 5902 5904 5903 5903 5903 5902
5853 5853 5854 5855 5856 5857 5858 5859 5861 5863 5862 5862 5862 5864 5866 5867 5869 5870 5873 5874 5874 5875 5875 5880 5880 5879 5884 5886 5886 5893 5891 5892 5891 5891 5895 5896 5896 5898 5898 5898 5899 5902 5900 5899 5899
5847 5847 5848 5849 5850 5851 5852 5853 5855 5854 5855 5856 5856 5858 5859 5860 5863 5865 5867 5868 5869 5871 5873 5874 5875 5877 5879 5883 5886 5888 5888 5888 5888 5889 5892 5893 5893 5895 5896 5895 5898 5898 5897 5898 5895
5840 5841 5842 5844 5845 5846 5847 5848 5848 5847 5848 5849 5852 5852 5854 5855 5855 5857 5860 5862 5864 5866 5867 5869 5874 5874 5876 5877 5880 5879 5882 5883 5882 5884 5887 5888 5888 5892 5894 5893 5893 5893 5896 5896 5895
5834 5836 5837 5839 5839 5840 5842 5842 5841 5842 5842 5843 5845 5846 5847 5849 5850 5852 5855 5857 5857 5860 5863 5865 5869 5867 5869 5871 5873 5875 5877 5879 5876 5877 5880 5882 5885 5889 5891 5890 5890 5891 5892 5893 5896
5830 5831 5832 5833 5834 5835 5836 5836 5834 5837 5837 5837 5838 5840 5842 5845 5848 5848 5850 5851 5851 5853 5855 5859 5863 5863 5865 5865 5867 5870 5873 5874 5873 5872 5873 5877 5879 5882 5886 5887 5888 5887 5889 5889 5894
5826 5827 5827 5828 5828 5830 5830 5830 5829 5830 5832 5833 5833 5834 5836 5839 5843 5843 5844 5846 5846 5847 5848 5850 5854 5858 5859 5861 5865 5866 5866 5868 5868 5868 5868 5870 5874 5879 5882 5883 5885 5885 5888 5890 5891
5821 5822 5822 5822 5823 5823 5823 5823 5824 5824 5825 5828 5828 5830 5831 5832 5836 5838 5838 5839 5842 5844 5845 5845 5848 5852 5855 5857 5859 5860 5862 5861 5861 5864 5863 5863 5868 5873 5876 5878 5880 5881 5882 5887 5890
5816 5817 5816 5817 5817 5818 5819 5820 5820 5819 5819 5821 5824 5825 5826 5829 5831 5832 5834 5834 5836 5839 5840 5841 5842 5846 5850 5851 5851 5853 5854 5856 5857 5857 5858 5857 5861 5865 5869 5872 5875 5875 5877 5881 5882
5813 5813 5813 5812 5812 5812 5814 5813 5815 5815 5815 5815 5818 5820 5820 5822 5823 5826 5828 5829 5830 5833 5834 5835 5836 5839 5842 5844 5846 5849 5850 5851 5852 5853 5852 5853 5855 5859 5858 5863 5868 5871 5873 5875 5878
5810 5809 5809 5809 5808 5808 5808 5808 5809 5811 5811 5810 5811 5814 5814 5815 5817 5817 5819 5821 5823 5825 5826 5829 5830 5832 5833 5836 5840 5841 5841 5842 5844 5845 5846 5848 5848 5852 5853 5856 5858 5863 5868 5868 5869
5806 5805 5804 5804 5804 5803 5804 5804 5805 5805 5805 5806 5807 5808 5809 5808 5810 5810 5812 5814 5816 5819 5820 5822 5824 5824 5826 5827 5829 5832 5839 5838 5836 5835 5838 5840 5843 5845 5849 5850 5853 5855 5859 5862 5865
5799 5800 5800 5799 5800 5799 5799 5800 5800 5801 5799 5801 5800 5800 5801 5799 5800 5803 5804 5807 5809 5811 5813 5814 5816 5817 5817 5819 5820 5823 5824 5826 5822 5826 5829 5832 5835 5840 5842 5844 5846 5849 5852 5855 5859